TimeCDT,TemperatureF,Dew PointF,Humidity,Sea Level PressureIn,VisibilityMPH,Wind Direction,Wind SpeedMPH,Gust SpeedMPH,PrecipitationIn,Events,Conditions,WindDirDegrees,DateUTC
12:53 AM,27.0,18.0,69,30.41,10.0,North,6.9,-,N/A,,Clear,360,2013-03-20 05:53:00
1:53 AM,24.1,14.0,65,30.44,10.0,North,8.1,-,N/A,,Clear,360,2013-03-20 06:53:00
2:53 AM,23.0,10.9,60,30.45,10.0,North,5.8,-,N/A,,Clear,350,2013-03-20 07:53:00
3:53 AM,21.0,10.9,65,30.45,10.0,NNW,4.6,-,N/A,,Clear,330,2013-03-20 08:53:00
4:53 AM,17.1,10.0,74,30.44,10.0,West,5.8,-,N/A,,Clear,280,2013-03-20 09:53:00
5:53 AM,16.0,10.0,77,30.44,10.0,SW,3.5,-,N/A,,Clear,230,2013-03-20 10:53:00
6:53 AM,15.1,10.0,80,30.43,10.0,WSW,6.9,-,N/A,,Clear,250,2013-03-20 11:53:00
7:53 AM,16.0,10.9,81,30.45,10.0,West,3.5,-,N/A,,Clear,280,2013-03-20 12:53:00
8:53 AM,19.9,14.0,78,30.44,10.0,Calm,Calm,-,N/A,,Clear,0,2013-03-20 13:53:00
9:53 AM,26.1,16.0,66,30.43,10.0,Calm,Calm,-,N/A,,Clear,0,2013-03-20 14:53:00
10:53 AM,30.9,10.9,43,30.42,10.0,Variable,3.5,-,N/A,,Clear,0,2013-03-20 15:53:00
11:53 AM,35.1,8.1,33,30.38,10.0,Variable,3.5,-,N/A,,Clear,0,2013-03-20 16:53:00
12:53 PM,39.9,10.0,29,30.32,10.0,South,8.1,-,N/A,,Clear,180,2013-03-20 17:53:00
1:53 PM,44.1,12.0,27,30.26,10.0,South,10.4,-,N/A,,Clear,170,2013-03-20 18:53:00
2:53 PM,46.0,12.0,25,30.20,10.0,SSE,13.8,24.2,N/A,,Clear,150,2013-03-20 19:53:00
3:53 PM,48.9,14.0,25,30.14,10.0,South,17.3,25.3,N/A,,Clear,180,2013-03-20 20:53:00
4:53 PM,50.0,15.1,25,30.09,10.0,South,18.4,26.5,N/A,,Clear,180,2013-03-20 21:53:00
5:53 PM,48.9,15.1,26,30.06,10.0,SSE,16.1,-,N/A,,Clear,160,2013-03-20 22:53:00
6:53 PM,46.9,16.0,29,30.03,10.0,SSE,12.7,23.0,N/A,,Clear,150,2013-03-20 23:53:00
7:53 PM,43.0,17.1,35,30.00,10.0,SE,15.0,-,N/A,,Clear,130,2013-03-21 00:53:00
8:53 PM,39.0,17.1,41,29.99,10.0,ESE,12.7,-,N/A,,Clear,120,2013-03-21 01:53:00
9:53 PM,37.0,18.0,46,29.97,10.0,ESE,16.1,-,N/A,,Scattered Clouds,120,2013-03-21 02:53:00
10:53 PM,36.0,18.0,48,29.94,10.0,ESE,16.1,-,N/A,,Mostly Cloudy,120,2013-03-21 03:53:00
11:53 PM,35.1,19.0,52,29.95,10.0,East,13.8,-,N/A,,Scattered Clouds,100,2013-03-21 04:53:00